Weather observations for the past three days for
Eureka Airport ASOS
Metric (Imperial)
Date Time (pdt) Wind (kph) Vis. (km) Weather Sky Cond. Temperature (ºC) Relative Humidity Wind Chill (°C) Heat Index (°C) Pressure Precipitation (cm)
Air Dwpt 6 hour altimeter (cm) sea level (mb) 1 hr 3 hr 6 hr
Max. Min.
03 18:53 S 22 G 43 0.00 NULL NULL 23.3 -5 15% 75.79 1004.1
03 17:53 S 37 G 48 0.00 Breezy NULL 25.6 -5.6 12% 25 75.79 1004.2
03 16:53 S 31 G 43 0.00 NULL NULL 26.1 -5 27.2 18.9 12% 25 75.82 1004.1
03 15:53 S 35 G 46 0.00 Breezy NULL 27.2 -5 12% 26 75.84 1004.3
03 14:53 S 22 G 48 0.00 NULL NULL 25 -6.1 12% 25 75.97 1006.1
03 13:53 S 33 G 44 0.00 Breezy NULL 24.4 -5.6 13% 24 76.05 1007.6
03 12:53 Vrbl 7 0.00 NULL NULL 22.2 -4.4 17% 76.12 1008.6
03 11:53 Calm 0.00 NULL NULL 20.6 -3.3 20% 76.23 1010.4
03 10:53 E 7 0.00 NULL NULL 18.9 -3.9 18.9 3.3 21% 76.3 1011.3
03 09:53 Vrbl 6 0.00 NULL NULL 17.2 -3.9 24% 76.35 1011.6
03 08:53 Calm 0.00 NULL NULL 14.4 -5 26% 76.35 1012.1
03 07:53 SW 6 0.00 NULL NULL 10.6 -3.9 36% 76.4 1013.1
03 06:53 S 11 0.00 NULL NULL 6.1 -5 45% 4 76.35 1013.1
03 05:53 S 9 0.00 NULL NULL 3.3 -4.4 57% 1 76.33 1012.5
03 04:53 S 11 0.00 NULL NULL 5 -4.4 8.9 3.9 51% 3 76.33 1012.1
03 03:53 S 11 0.00 NULL NULL 4.4 -4.4 53% 2 76.35 1012.2
03 02:53 S 9 0.00 NULL NULL 6.1 -4.4 47% 4 76.35 1012.0
03 01:53 Calm 0.00 NULL NULL 4.4 -3.9 55% 76.35 1012.5
03 00:53 S 11 0.00 NULL NULL 6.1 -3.9 49% 4 76.35 1012.1
02 23:53 S 11 0.00 NULL NULL 7.2 -4.4 44% 5 76.35 1012.5
02 22:53 S 11 0.00 NULL NULL 8.9 -3.9 21.7 8.9 41% 7 76.35 1011.9
02 21:53 N 6 0.00 NULL NULL 12.8 -3.3 33% 76.35 1011.5
02 20:53 Calm 0.00 NULL NULL 14.4 -2.8 31% 76.3 1010.7
02 19:53 Vrbl 6 0.00 NULL NULL 15 -3.3 28% 76.25 1010.4
02 18:53 N 13 0.00 NULL NULL 17.2 -5 22% 76.23 1010.4
02 17:53 NW 15 0.00 NULL NULL 21.1 -9.4 12% 76.2 1010.0
02 16:53 Calm 0.00 NULL NULL 21.7 -9.4 22.2 18.9 12% 76.2 1008.7
02 15:53 Vrbl 6 0.00 NULL NULL 22.2 -7.8 13% 76.23 1008.8
02 14:53 N 13 0.00 NULL NULL 21.7 -8.3 13% 76.25 1009.0
02 13:53 N 11 0.00 NULL NULL 21.7 -8.3 13% 76.28 1008.9
02 12:53 NE 9 0.00 NULL NULL 21.1 -8.3 13% 76.3 1009.7
02 11:53 Vrbl 7 0.00 NULL NULL 19.4 -7.8 15% 76.35 1011.0
02 10:53 NE 17 0.00 NULL NULL 19.4 -6.7 19.4 5 17% 76.38 1011.0
02 09:53 N 13 0.00 NULL NULL 18.3 -7.2 17% 76.38 1011.1
02 08:53 N 9 0.00 NULL NULL 17.8 -7.2 18% 76.38 1011.0
02 07:53 S 11 0.00 NULL NULL 14.4 -8.3 20% 76.35 1011.2
02 06:53 S 19 0.00 NULL NULL 10 -9.4 25% 8 76.35 1010.9
02 05:53 S 7 0.00 NULL NULL 7.2 -8.9 31% 6 76.3 1010.3
02 04:53 SW 11 0.00 NULL NULL 12.2 -11.1 17.8 9.4 19% 76.23 1008.3
02 03:53 Vrbl 11 0.00 NULL NULL 11.7 -9.4 22% 76.2 1008.0
02 02:53 S 13 0.00 NULL NULL 14.4 -10 18% 76.17 1007.0
02 01:53 Vrbl 11 0.00 NULL NULL 16.1 -11.1 14% 76.17 1006.7
02 00:53 SW 7 0.00 NULL NULL 15 -10 17% 76.17 1007.4
01 23:53 E 7 0.00 NULL NULL 13.3 -6.1 26% 76.17 1007.8
01 22:53 SE 11 0.00 NULL NULL 15 -7.2 26.7 14.4 21% 76.15 1007.2
01 21:53 S 19 0.00 NULL NULL 16.1 -8.3 18% 76.15 1007.9
01 20:53 S 19 0.00 NULL NULL 16.7 -6.7 20% 76.15 1008.0
01 19:53 S 19 0.00 NULL NULL 17.8 -7.2 18% 76.1 1007.2
01 18:53 S 28 0.00 NULL NULL 23.3 -8.9 11% 76.07 1006.0
01 17:53 S 30 G 43 0.00 NULL NULL 25.6 -10 9% 25 76.07 1005.6
01 16:53 S 31 G 44 0.00 NULL NULL 26.1 -10.6 27.2 22.2 8% 25 76.07 1005.5
01 15:53 SW 31 G 46 0.00 NULL NULL 26.7 -11.7 7% 26 76.1 1005.8
01 14:53 S 33 G 46 0.00 Breezy NULL 26.7 -8.9 9% 26 76.12 1006.0
01 13:53 S 37 G 52 0.00 Breezy NULL 25.6 -9.4 9% 25 76.2 1007.2
01 12:53 S 37 G 52 0.00 Breezy NULL 25 -7.8 11% 24 76.25 1008.0
01 11:53 S 28 G 52 0.00 NULL NULL 23.3 -6.1 14% 76.33 1009.0
01 10:53 S 37 G 57 0.00 Breezy NULL 22.2 -2.8 22.2 14.4 19% 76.38 1009.9
01 08:53 S 28 0.00 NULL NULL 17.8 5 43% 76.38 1010.6
01 07:53 S 26 0.00 NULL NULL 16.7 5.6 48% 76.35 1010.6
01 06:53 S 20 0.00 NULL NULL 15.6 6.1 53% 76.33 1009.8
01 05:53 SE 20 0.00 NULL NULL 15.6 5 50% 76.33 1010.0
01 04:53 SE 24 0.00 NULL NULL 15 6.1 17.8 15 56% 76.3 1009.8
01 03:53 SE 26 0.00 NULL NULL 15.6 5.6 52% 76.33 1009.2
01 02:53 SE 17 0.00 NULL NULL 16.1 5 48% 76.3 1008.6
01 01:53 SE 17 0.00 NULL NULL 16.7 4.4 44% 76.28 1008.2
01 00:53 Calm 0.00 NULL NULL 17.2 3.9 41% 76.33 1008.9
31 23:53 SE 11 0.00 NULL NULL 17.2 3.9 41% 76.33 1008.9
31 22:53 SE 17 0.00 NULL NULL 17.8 4.4 22.2 16.7 41% 76.33 1009.3
31 21:53 SE 24 0.00 NULL NULL 18.3 4.4 40% 76.33 1010.1
31 20:53 SE 19 G 26 0.00 NULL NULL 18.3 4.4 40% 76.33 1010.3
31 19:53 SE 35 G 48 0.00 Breezy NULL 18.9 4.4 39% 76.25 1010.0
Date Time (pdt) Wind (kph) Vis. (km) Weather Sky Cond. Air Dwpt Max. Min. Relative Humidity Wind Chill (°C) Heat Index (°C) altimeter (cm) sea level (mb) 1 hr 3 hr 6 hr
6 hour
Temperature (ºC) Pressure Precipitation (cm)